Regional Weather Roundup
Issued by NWS

Home | Current Version | Previous Version | Text Only | Print | Product List | Glossary Off
Versions: 1 2 3 4 5 6 7 8 9 10 11 12 13 14 15 16 17 18 19 20 21 22 23 24 25 26 27 28 29 30 31 32 33 34 35 36 37 38 39 40 41 42 43 44 45 46 47 48 49 50

000
ASUS46 KLOX 241013
RWRCA

SOUTHERN CALIFORNIA WEATHER ROUNDUP
NATIONAL WEATHER SERVICE OXNARD CALIFORNIA
300 AM PDT THU MAY 24 2018

NOTE: "FAIR" INDICATES FEW OR NO CLOUDS BELOW 12,000 FEET WITH NO
SIGNIFICANT WEATHER AND/OR OBSTRUCTIONS TO VISIBILITY.

  -  STATIONS PRECEEDED BY AN ASTERISK (*) ARE NOT NWS OR FAA
     STATIONS AND ARE NOT SUBJECT TO NWS AND FAA QUALITY CONTROL.

CAZ041-042-087-241100-
LA AND ORANGE COUNTY COASTAL AREAS


CITY           SKY/WX    TMP DP  RH WIND       PRES   REMARKS
L.A. DOWNTOWN  CLOUDY    60  54  80 CALM      30.02S
L.A. AIRPORT   CLOUDY    60  54  80 CALM      30.02F
LONG BEACH     CLOUDY    60  54  80 CALM      30.02F

CITY           SKY/WX    TMP DP  RH WIND       PRES   REMARKS
AVALON           N/A     59 N/A N/A E2          N/A
FULLERTON      CLOUDY    62  54  74 CALM      30.01F
HAWTHORNE      CLOUDY    60  54  80 CALM      30.03S
*LEO CARRILLO    N/A     58  51  78 CALM        N/A
*LOS ALAMITOS  CLOUDY    59  54  82 S3        30.02S
*REDONDO BEACH   N/A     59  53  80 CALM      30.01S
SANTA ANA      CLOUDY    59  57  93 CALM      30.02S FOG
STA MONICA APT CLOUDY    59  54  83 SW3       30.03S
*UCLA            N/A     59  52  77 CALM      29.99S

$$

CAZ547-548-048-241100-
LA COUNTY VALLEYS AND INLAND EMPIRE


CITY           SKY/WX    TMP DP  RH WIND       PRES   REMARKS
BURBANK        CLOUDY    57  54  89 S3        30.02S
VAN NUYS       CLOUDY    58  51  78 CALM      30.02S

CITY           SKY/WX    TMP DP  RH WIND       PRES   REMARKS
CORONA AIRPORT CLOUDY    59  54  82 CALM      30.03S
*CHATSWORTH      N/A     58  51  77 CALM      30.01R
CHINO          CLOUDY    61  52  72 SW5       30.03F
*CLAREMONT       N/A     54  52  94 CALM        N/A
MARCH AFB      CLOUDY    56  56 100 NW5       30.01F
*NORTHRIDGE      N/A     59  48  67 SE2         N/A
ONTARIO        CLOUDY    59  51  75 NW3       30.02F
*PASADENA        N/A     59  54  82 E2          N/A
RIVERSIDE        N/A     59  53  80 W3        30.02F
SAN BERNARDINO CLOUDY    60  51  73 CALM      30.02F
*SAN RAFAEL HI   N/A     52  51  98 E3          N/A
*SAUGUS          N/A     55  51  88 CALM        N/A
*WHITEMAN AP   NOT AVBL
*WHITTIER HILL   N/A     56  55  96 CALM        N/A
*WOODLAND HILL   N/A     59  50  72 CALM        N/A

$$

CAZ054-055-241100-
LA AND SAN BERNARDINO COUNTY MOUNTAINS


CITY           SKY/WX    TMP DP  RH WIND       PRES   REMARKS
*ACTON           N/A     53  51  92 SW3         N/A
*BIG BEAR AIRP SUNNY     36  32  87 CALM      30.14S
*BIG PINES       N/A     51  28  40 CALM        N/A
*CHILAO          N/A     51  43  75 E7          N/A
SANDBERG       CLEAR     50  48  93 S10       30.06S
*WARM SPRINGS    N/A     49  49 100 SW5         N/A

$$

CAZ028-029-059-060-099-241100-
ANTELOPE VALLEY AND SURROUNDING AREAS


CITY           SKY/WX    TMP DP  RH WIND       PRES   REMARKS
LANCASTER      CLEAR     57  49  74 SW12      29.97F
PALMDALE       CLEAR     57  47  69 S14       29.98R
*POPPY PARK      N/A     57  49  76 SW20        N/A

CITY           SKY/WX    TMP DP  RH WIND       PRES   REMARKS
29 PALMS       CLEAR     68  40  35 SW3       29.99S
BARSTOW/DAGGET CLEAR     65  44  46 W12       29.93S
BISHOP         CLEAR     56  44  64 N6        29.99R
CHINA LAKE     CLEAR     69  47  45 SW10      29.91S
EDWARDS AFB    CLEAR     59  49  69 SW10      29.94S
MOJAVE         PTCLDY    61  48  63 SW9       29.96S
NEEDLES        CLEAR     79  36  21 SW7       29.87S

$$

CAZ039-040-241100-
VENTURA AND SANTA BARBARA COUNTY COAST


CITY           SKY/WX    TMP DP  RH WIND       PRES   REMARKS
CAMARILLO      CLOUDY    58  52  80 N5        30.02S
NWS OXNARD       N/A     58  52  80 CALM      30.01S
OXNARD AIRPORT CLOUDY    59  53  80 N3        30.02S
*POINT MUGU    CLOUDY    59  53  80 NE3       30.03S
SBA APT/GOLETA CLOUDY    58  53  84 CALM      30.01S
*SANTA BARBARA   N/A     60  52  77 CALM      30.09S
*VENTURA         N/A     57  54  89 CALM      30.14S

$$

CAZ044-045-241100-
VENTURA COUNTY VALLEYS


CITY           SKY/WX    TMP DP  RH WIND       PRES   REMARKS
*SIMI VALLEY     N/A     56  52  85 CALM      29.98S
*WESTLAKE VILL   N/A     54  49  84 CALM      30.00S
*OJAI            N/A     53  50  91 CALM      29.97S
*FILLMORE        N/A     55  52  92 CALM      30.06S

$$

CAZ053-241100-
VENTURA COUNTY MOUNTAINS


CITY           SKY/WX    TMP DP  RH WIND       PRES   REMARKS
*LOCKWOOD VLY    N/A     37  32  81 MISG        N/A
*FRAZIER MTN     N/A     43  24  46 SW7       29.77F
*ROSE VALLEY     N/A     43  41  93 NW3         N/A

$$

CAZ034-035-036-241100-
CENTRAL COAST AND SANTA YNEZ VALLEY


CITY           SKY/WX    TMP DP  RH WIND       PRES   REMARKS
SAN LUIS OBISP CLOUDY    55  50  83 CALM      30.02S
SANTA MARIA    CLOUDY    55  50  83 S3        30.03S

CITY           SKY/WX    TMP DP  RH WIND       PRES   REMARKS
*CAL POLY SLO    N/A     54  52  94 CALM        N/A
*LOMPOC        CLOUDY    55  50  83 SW3       30.03S
*PISMO BEACH     N/A     56  32  40 CALM      30.03S
*SANTA YNEZ    CLOUDY    54  48  82 CALM      30.02S

$$

CAZ037-038-051-241100-
SAN LUIS OBISPO COUNTY INTERIOR AND CUYAMA VALLEY


CITY           SKY/WX    TMP DP  RH WIND       PRES   REMARKS
PASO ROBLES    PTCLDY    51  48  89 SW6       30.00S

$$

CAZ032-033-061-241100-
SOUTHERN DESERTS


CITY           SKY/WX    TMP DP  RH WIND       PRES   REMARKS
BLYTHE         CLEAR     74  36  25 S8        29.86S
IMPERIAL       CLEAR     70  58  65 SE8       29.84S
PALM SPRINGS   CLEAR     69  53  56 S3        29.89S
THERMAL        CLEAR     73  53  49 N9        29.84S

$$

ELSEWHERE ACROSS THE WESTERN UNITED STATES AND MEXICO


CITY           SKY/WX    TMP DP  RH WIND       PRES   REMARKS
DEATH VALLEY,    N/A     85  43  22 SE2         N/A
DENVER, CO     PTCLDY    52  45  77 W7        30.09R
GRAND CANYON,  CLEAR     34  15  46 CALM      30.22S
HONOLULU, HI   LGT RAIN  75  68  78 E13       30.07F
KAHULUI, MAUI  LGT RAIN  72  70  94 NE13G23   30.06F
LAKE TAHOE, CA CLEAR     39  38  96 CALM      30.13F
LAS VEGAS, NV  CLEAR     74  34  23 S3        29.91R
MAMMOTH LAKES, FAIR      40  38  92 CALM      30.16S
MEXICO CITY, M PTCLDY    61  48  63 CALM      30.34S
PHOENIX, AZ    CLEAR     75  31  19 E5        29.90F
PORTLAND, OR   CLOUDY    60  51  72 NE5       30.02R
RENO, NV       PTCLDY    54  46  74 CALM      30.07S
SALT LAKE CITY PTCLDY    57  45  62 SE8       30.03S
SAN DIEGO, CA  CLOUDY    61  54  77 CALM      30.04F
SAN FRANCISCO, CLOUDY    55  47  74 SW8       30.01S
SAN JOSE, CA   CLOUDY    57  49  74 NW8       30.00F
SEATTLE, WA    CLOUDY    57  51  80 SW10      29.98R
TIJUANA, MEX   DRIZZLE   57  55  94 CALM      30.05

$$

STATION/POSITION TIME  TEMP    WIND        PRES    VSBY  WAVE
                       AIR SEA DIR/SP/G                  HT/PER
                 (UTC) (F)     (DEG/KT/KT) (MB)    (MI)  (FT/S)
POINT ARGUELLO B NOT AVBL
WEST SANTA BARBA 0950      55  310/  8/ 10 1016.2S         4/16
POINT CONCEPTION NOT AVBL
EAST SANTA BARBA 1000   57 56  230/  8/ 10 1016.9
SANTA MONICA BAY 1000          100/  8/ 10 1016.1



USA.gov is the U.S. government's official web portal to all federal, state and local government web resources and services.